COSMOS 1833

Last updated on Mon Sep 21 2026 00:02:08 GMT+0000 (Coordinated Universal Time)

1 17589U 87027A 26263.46133045 -.00000298 00000+0 -13328-3 0 9999 2 17589 70.9152 276.6167 0026815 270.7598 89.0451 14.13046160 37835
UTC large
Height (km)
Speed (km/s)
/
Latitude / Longitude
Inclination (degrees)
Orbital Period (minutes)
Azimuth
Elevation
Range (km)
Doppler Factor

Next 0 passes for location: London (51.5072 / 0.1276)

No passes found over London.
COSMOS 1833